1510081200.79,37207,11.75,73836.3,-1.75,-37.45,-37.63,0,*56
1510081202.0,37208,11.75,73836.3,-1.75,-37.87,-38.05,0,*58
1510081203.25,37209,11.75,73836.3,-1.75,-37.87,-38.23,0,*5D
1510081204.51,37210,11.75,73838.5,-1.75,-37.99,-38.29,0,*50
1510081205.81,37211,11.75,73838.3,-1.73,-37.81,-37.99,0,*5A
1510081207.09,37212,11.75,73840.5,-1.73,-37.99,-38.23,0,*5E
1510081208.36,37213,11.75,73836.5,-1.75,-37.99,-38.29,0,*53
1510081209.62,37214,11.75,73838.5,-1.75,-38.23,-38.49,0,*5C
1510081210.88,37215,11.75,73840.0,-1.75,-38.29,-38.79,0,*54
1510081212.17,37216,11.75,73836.3,-1.77,-38.11,-38.49,0,*5D
1510081213.43,37217,11.75,73842.0,-1.77,-37.87,-38.11,0,*51
1510081214.72,37218,11.75,73840.8,-1.77,-38.23,-38.67,0,*5E
1510081215.98,37219,11.75,73844.3,-1.77,-38.05,-38.23,0,*5B
1510081217.22,37220,11.75,73842.5,-1.77,-38.05,-38.61,0,*57
1510081218.51,37221,11.75,73838.0,-1.77,-37.99,-38.23,0,*5A
1510081219.8,37222,11.75,73838.0,-1.77,-37.99,-38.23,0,*59
1510081221.09,37223,11.75,73840.5,-1.77,-38.11,-38.49,0,*5B
1510081222.32,37224,11.75,73836.0,-1.81,-38.11,-38.55,0,*58
1510081223.6,37225,11.75,73840.5,-1.77,-38.23,-38.67,0,*50
1510081224.86,37226,11.75,73842.8,-1.77,-38.23,-38.61,0,*55
1510081226.13,37227,11.75,73840.5,-1.77,-38.29,-38.85,0,*54
1510081227.33,37228,11.75,73836.0,-1.81,-38.43,-38.97,0,*5D
1510081228.56,37229,11.75,73838.3,-1.81,-38.55,-38.91,0,*5D
1510081229.76,37230,11.75,73842.3,-1.81,-38.43,-38.97,0,*54
1510081231.02,37231,11.75,73838.8,-1.77,-38.11,-38.61,0,*52
1510081232.22,37232,11.75,73838.8,-1.81,-38.35,-38.61,0,*5E
1510081233.45,37233,11.75,73838.8,-1.81,-38.11,-38.35,0,*58
1510081234.68,37234,11.75,73840.5,-1.81,-38.23,-38.61,0,*5F
1510081235.89,37235,11.75,73838.0,-1.81,-38.17,-38.43,0,*59
1510081237.1,37236,11.75,73836.8,-1.81,-38.17,-38.43,0,*5A
1510081238.33,37237,11.75,73836.5,-1.81,-38.11,-38.35,0,*5C
1510081239.59,37238,11.75,73832.5,-1.77,-37.63,-37.87,0,*56
1510081240.86,37239,11.75,73838.5,-1.77,-37.81,-38.05,0,*5E
1510081242.12,37240,11.75,73832.8,-1.77,-37.69,-38.05,0,*56
1510081243.4,37241,11.75,73834.3,-1.77,-37.99,-38.11,0,*5D
1510081244.66,37242,11.75,73836.0,-1.77,-37.87,-38.11,0,*51
1510081245.93,37243,11.75,73834.8,-1.77,-38.05,-38.29,0,*5E
1510081247.22,37244,11.75,73834.8,-1.77,-37.51,-37.81,0,*5A
1510081248.51,37245,11.75,73834.0,-1.77,-37.99,-38.29,0,*52
1510081249.81,37246,11.75,73834.8,-1.77,-37.99,-38.23,0,*5B
1510081251.07,37247,11.75,73834.8,-1.77,-37.63,-37.87,0,*5E
1510081252.36,37248,11.75,73834.8,-1.77,-37.99,-38.23,0,*55
1510081253.6,37249,11.75,73838.8,-1.75,-37.87,-38.11,0,*58
1510081254.84,37250,11.75,73836.3,-1.75,-37.81,-38.05,0,*53
1510081256.07,37251,11.75,73836.3,-1.73,-37.75,-37.87,0,*5A
1510081257.33,37252,11.75,73838.3,-1.73,-37.93,-38.17,0,*57
1510081258.6,37253,11.75,73842.8,-1.75,-37.99,-38.29,0,*57
1510081259.84,37254,11.75,73840.3,-1.75,-37.81,-38.05,0,*57
1510081261.11,37255,11.75,73840.3,-1.71,-37.81,-38.23,0,*56
1510081262.34,37256,11.75,73842.5,-1.73,-38.05,-38.43,0,*52
1510081263.58,37257,11.75,73846.5,-1.75,-38.05,-38.29,0,*59
1510081264.82,37258,11.75,73840.5,-1.75,-38.05,-38.49,0,*50
1510081266.05,37259,11.75,73840.3,-1.73,-38.17,-38.43,0,*5E
1510081267.28,37260,11.75,73840.0,-1.75,-38.23,-38.61,0,*55
1510081268.55,37261,11.75,73844.8,-1.75,-38.29,-38.67,0,*58
1510081269.78,37262,11.75,73844.0,-1.75,-38.43,-38.79,0,*58
1510081271.05,37263,11.75,73844.5,-1.75,-38.49,-38.79,0,*53
1510081272.28,37264,11.75,73844.0,-1.73,-38.05,-38.35,0,*52
1510081273.52,37265,11.75,73844.3,-1.75,-37.87,-38.11,0,*56
1510081274.76,37266,11.75,73848.8,-1.77,-38.05,-38.43,0,*55
1510081276.02,37267,11.75,73848.8,-1.77,-38.11,-38.43,0,*51
1510081277.25,37268,11.75,73846.0,-1.75,-38.11,-38.43,0,*5C
1510081278.47,37269,11.75,73846.5,-1.75,-38.05,-38.43,0,*58
1510081279.7,37270,11.75,73846.5,-1.75,-38.05,-38.49,0,*5A
1510081280.96,37271,11.75,73848.8,-1.75,-38.11,-38.49,0,*5E
1510081282.17,37272,11.75,73848.5,-1.75,-38.43,-38.85,0,*5A
1510081283.41,37273,11.75,73846.0,-1.77,-38.61,-38.85,0,*59
1510081284.68,37274,11.75,73846.8,-1.77,-38.49,-38.97,0,*57
1510081285.97,37275,11.75,73846.0,-1.77,-38.29,-38.79,0,*50
1510081287.26,37276,11.75,73848.5,-1.77,-38.29,-38.67,0,*5C
1510081288.52,37277,11.75,73844.0,-1.77,-38.43,-38.67,0,*51
1510081289.79,37278,11.75,73848.3,-1.77,-38.49,-38.85,0,*58
1510081291.08,37279,11.75,73846.3,-1.77,-38.49,-38.79,0,*5A
1510081292.28,37280,11.75,73842.3,-1.81,-38.43,-38.73,0,*55
1510081293.57,37281,11.75,73840.3,-1.77,-38.29,-38.79,0,*5B
1510081294.79,37282,11.75,73842.5,-1.81,-38.23,-38.61,0,*52
1510081296.09,37283,11.75,73844.0,-1.77,-37.81,-37.99,0,*55
1510081297.35,37284,11.75,73842.8,-1.81,-37.69,-37.99,0,*5D
1510081298.64,37285,11.75,73840.5,-1.77,-37.69,-37.99,0,*55
1510081299.88,37286,11.75,73842.3,-1.75,-38.05,-38.23,0,*5F
1510081301.17,37287,11.75,73840.8,-1.77,-38.11,-38.49,0,*55
1510081302.39,37288,11.75,73840.5,-1.81,-37.45,-37.69,0,*50
1510081303.68,37289,11.75,73838.0,-1.77,-37.69,-37.99,0,*59
1510081304.92,37290,11.75,73838.8,-1.77,-37.87,-38.05,0,*5B
1510081306.22,37291,11.75,73836.0,-1.77,-37.81,-37.99,0,*56
1510081307.48,37292,11.75,73838.8,-1.77,-37.69,-37.87,0,*5C
1510081308.77,37293,11.75,73838.0,-1.77,-37.51,-37.81,0,*50
1510081310.01,37294,11.75,73842.8,-1.73,-37.57,-37.87,0,*53
1510081311.27,37295,11.75,73838.3,-1.75,-37.63,-37.99,0,*5C
1510081312.51,37296,11.75,73840.5,-1.75,-37.51,-37.87,0,*51
1510081313.79,37297,11.75,73842.3,-1.73,-37.63,-37.93,0,*52
1510081315.07,37298,11.75,73840.0,-1.75,-37.81,-37.99,0,*5D
1510081316.3,37299,11.75,73842.5,-1.73,-38.05,-38.35,0,*50
1510081317.56,37300,11.75,73840.8,-1.75,-37.81,-38.11,0,*52
1510081318.84,37301,11.75,73838.3,-1.71,-37.81,-37.99,0,*58
1510081320.07,37302,11.75,73840.8,-1.71,-37.81,-38.05,0,*51
1510081321.31,37303,11.75,73840.5,-1.71,-37.99,-38.43,0,*5B
1510081322.55,37304,11.75,73842.0,-1.71,-37.57,-37.81,0,*5F
1510081323.81,37305,11.75,73840.5,-1.73,-37.57,-37.81,0,*5C
1510081325.06,37306,11.75,73840.5,-1.73,-37.57,-37.93,0,*5C
1510081326.33,37307,11.75,73840.5,-1.71,-37.99,-38.23,0,*59
1510081327.57,37308,11.75,73846.0,-1.71,-37.75,-37.99,0,*5A
1510081328.78,37309,11.75,73846.5,-1.71,-37.87,-38.17,0,*5F
1510081330.06,37310,11.75,73844.3,-1.69,-37.69,-37.93,0,*5D
1510081331.28,37311,11.75,73840.8,-1.71,-38.17,-38.43,0,*51
1510081332.49,37312,11.75,73846.0,-1.71,-38.17,-38.55,0,*55
1510081333.71,37313,11.75,73846.8,-1.71,-38.17,-38.55,0,*54
1510081334.96,37314,11.75,73846.0,-1.69,-38.11,-38.35,0,*5A
1510081336.17,37315,11.75,73846.8,-1.71,-38.43,-38.73,0,*57
1510081337.41,37316,11.75,73846.5,-1.71,-38.43,-38.79,0,*5E
1510081338.61,37317,11.75,73848.3,-1.71,-38.35,-38.73,0,*54
1510081339.84,37318,11.75,73844.8,-1.71,-38.23,-38.61,0,*5F
1510081341.04,37319,11.75,73846.8,-1.71,-38.35,-38.73,0,*5A
1510081342.3,37320,11.75,73844.3,-1.73,-38.55,-38.79,0,*5E
1510081343.56,37321,11.75,73844.8,-1.73,-38.23,-38.43,0,*57
1510081344.81,37322,11.75,73850.0,-1.73,-38.55,-38.79,0,*5C
1510081346.07,37323,11.75,73848.3,-1.73,-38.23,-38.55,0,*52
1510081347.31,37324,11.75,73846.5,-1.73,-38.17,-38.55,0,*52
1510081348.54,37325,11.75,73844.5,-1.73,-38.35,-38.61,0,*54
1510081349.76,37326,11.75,73846.5,-1.73,-38.55,-38.73,0,*52
1510081351.01,37327,11.75,73844.8,-1.73,-37.99,-38.05,0,*5D
1510081352.24,37328,11.75,73844.3,-1.73,-37.45,-37.75,0,*5B
1510081353.48,37329,11.75,73842.5,-1.71,-37.81,-38.05,0,*58
1510081354.77,37330,11.75,73842.3,-1.73,-37.99,-38.23,0,*5F
1510081356.03,37331,11.75,73842.8,-1.73,-37.99,-38.35,0,*59
1510081357.32,37332,11.75,73846.0,-1.73,-37.81,-37.99,0,*5A
1510081358.58,37333,11.75,73844.0,-1.73,-37.81,-38.05,0,*51
1510081359.84,37334,11.75,73844.8,-1.73,-37.99,-38.17,0,*5C
1510081361.1,37335,11.69,73838.3,-1.73,-38.05,-38.29,0,*5A
1510081362.3,37336,11.75,73844.3,-1.71,-38.43,-38.73,0,*56
1510081363.54,37337,11.75,73842.5,-1.71,-38.23,-38.61,0,*52
1510081364.77,37338,11.75,73844.0,-1.73,-38.17,-38.35,0,*59
1510081366.01,37339,11.75,73842.0,-1.71,-37.93,-38.17,0,*59
1510081367.26,37340,11.75,73842.0,-1.73,-38.23,-38.55,0,*57
1510081368.52,37341,11.75,73842.8,-1.73,-37.99,-38.17,0,*5E
1510081369.81,37342,11.75,73846.0,-1.73,-37.99,-38.23,0,*5A
1510081371.04,37343,11.75,73842.5,-1.69,-37.75,-38.17,0,*55
1510081372.27,37344,11.75,73846.3,-1.71,-37.93,-38.17,0,*53
1510081373.51,37345,11.75,73846.0,-1.71,-37.93,-38.17,0,*52
1510081374.77,37346,11.75,73844.5,-1.71,-37.99,-38.23,0,*5C
1510081375.99,37347,11.75,73846.0,-1.71,-38.05,-38.35,0,*50
1510081377.22,37348,11.75,73844.8,-1.71,-37.99,-38.05,0,*56
1510081378.48,37349,11.75,73844.0,-1.69,-37.87,-37.93,0,*51
1510081379.75,37350,11.75,73846.3,-1.71,-37.63,-37.81,0,*59
1510081380.98,37351,11.75,73844.0,-1.71,-37.81,-38.05,0,*57
1510081382.25,37352,11.75,73844.8,-1.69,-37.99,-38.35,0,*57
1510081383.51,37353,11.75,73850.3,-1.69,-37.99,-38.17,0,*56
1510081384.79,37354,11.75,73844.8,-1.69,-38.11,-38.49,0,*55
1510081386.05,37355,11.75,73846.0,-1.69,-38.29,-38.55,0,*52
1510081387.31,37356,11.75,73848.3,-1.69,-38.11,-38.35,0,*5C
1510081388.55,37357,11.75,73848.5,-1.71,-37.93,-38.17,0,*51
1510081389.81,37358,11.75,73844.5,-1.71,-37.63,-37.93,0,*52
1510081391.09,37359,11.75,73848.0,-1.69,-37.93,-38.11,0,*50
1510081392.29,37360,11.75,73844.3,-1.71,-38.55,-38.73,0,*52
1510081393.56,37361,11.75,73846.3,-1.69,-38.29,-38.55,0,*55
1510081394.82,37362,11.75,73840.5,-1.69,-38.17,-38.49,0,*56
1510081396.03,37363,11.75,73842.3,-1.71,-38.17,-38.43,0,*54
1510081397.25,37364,11.75,73844.8,-1.71,-38.05,-38.35,0,*51
1510081398.51,37365,11.75,73842.8,-1.69,-37.99,-38.17,0,*53
1510081399.74,37366,11.75,73846.8,-1.69,-38.17,-38.55,0,*5F
1510081400.98,37367,11.75,73844.0,-1.71,-38.11,-38.35,0,*57
1510081402.19,37368,11.75,73844.8,-1.71,-38.17,-38.55,0,*58
1510081403.43,37369,11.75,73846.8,-1.69,-37.87,-38.17,0,*50
1510081404.66,37370,11.75,73846.0,-1.71,-37.99,-38.05,0,*5D
1510081405.9,37371,11.75,73846.8,-1.71,-37.93,-38.17,0,*55
1510081407.18,37372,11.75,73850.8,-1.69,-37.51,-37.69,0,*57
1510081408.47,37373,11.75,73844.8,-1.69,-37.99,-38.29,0,*59
1510081409.75,37374,11.75,73844.8,-1.69,-38.29,-38.67,0,*50
1510081410.95,37375,11.75,73850.8,-1.71,-38.35,-38.73,0,*50
1510081412.19,37376,11.75,73844.8,-1.69,-38.17,-38.55,0,*5E
1510081413.43,37377,11.75,73848.0,-1.71,-38.43,-38.79,0,*59
1510081414.68,37378,11.75,73848.0,-1.69,-38.67,-38.85,0,*5A
1510081415.92,37379,11.75,73850.3,-1.71,-38.43,-38.79,0,*57
1510081417.13,37380,11.75,73848.5,-1.71,-38.55,-38.73,0,*5C
1510081418.33,37381,11.75,73852.0,-1.71,-38.35,-38.61,0,*58
1510081419.54,37382,11.75,73846.8,-1.71,-38.43,-38.73,0,*59
1510081420.75,37383,11.75,73844.8,-1.71,-38.35,-38.61,0,*5A
1510081421.96,37384,11.75,73844.3,-1.71,-38.55,-38.97,0,*52
1510081423.24,37385,11.75,73850.8,-1.69,-38.67,-38.91,0,*5D
1510081424.47,37386,11.75,73846.8,-1.71,-38.61,-38.91,0,*51
1510081425.71,37387,11.75,73846.8,-1.71,-38.61,-38.91,0,*50
1510081426.97,37388,11.75,73848.8,-1.73,-38.55,-38.79,0,*5C
1510081428.2,37389,11.69,73846.3,-1.75,-38.67,-38.85,0,*59
1510081429.46,37390,11.75,73850.3,-1.73,-38.55,-38.79,0,*55
1510081430.68,37391,11.75,73848.0,-1.73,-38.43,-38.73,0,*59
1510081431.94,37392,11.75,73850.8,-1.73,-38.23,-38.55,0,*58
1510081433.2,37393,11.75,73848.0,-1.73,-37.93,-38.17,0,*5B
1510081434.45,37394,11.75,73848.3,-1.73,-37.93,-38.05,0,*5F
1510081435.68,37395,11.75,73850.0,-1.71,-37.99,-38.17,0,*55
1510081436.95,37396,11.75,73846.0,-1.71,-37.99,-38.23,0,*51
1510081438.19,37397,11.75,73846.0,-1.71,-37.99,-38.17,0,*57
1510081439.43,37398,11.75,73846.5,-1.71,-37.99,-38.35,0,*58
1510081440.64,37399,11.75,73848.5,-1.71,-38.05,-38.35,0,*53
1510081441.85,37400,11.75,73848.0,-1.71,-38.17,-38.43,0,*56
1510081443.11,37401,11.75,73846.8,-1.73,-37.75,-37.81,0,*5F
1510081444.36,37402,11.75,73846.5,-1.73,-37.93,-38.05,0,*57
1510081445.58,37403,11.75,73844.5,-1.71,-38.05,-38.55,0,*51
1510081446.81,37404,11.75,73844.3,-1.71,-38.55,-38.79,0,*5D
1510081448.05,37405,11.75,73844.8,-1.71,-37.99,-38.17,0,*5B
1510081449.31,37406,11.75,73844.3,-1.71,-37.99,-38.23,0,*5F
1510081450.55,37407,11.75,73848.8,-1.71,-38.23,-38.55,0,*51
1510081451.76,37408,11.75,73846.5,-1.71,-38.17,-38.35,0,*5F
1510081453.0,37409,11.75,73844.5,-1.71,-38.43,-38.79,0,*57
1510081454.21,37410,11.75,73844.8,-1.71,-38.55,-38.73,0,*52
1510081455.49,37411,11.75,73846.0,-1.69,-38.29,-38.67,0,*54
1510081456.73,37412,11.75,73846.0,-1.71,-38.23,-38.61,0,*52
1510081457.98,37413,11.75,73842.0,-1.69,-38.49,-38.73,0,*55
1510081459.22,37414,11.75,73840.8,-1.71,-38.55,-38.79,0,*5C
1510081460.46,37415,11.75,73840.0,-1.71,-38.61,-38.91,0,*5C
1510081461.67,37416,11.75,73842.0,-1.71,-38.05,-38.43,0,*52
1510081462.94,37417,11.75,73844.5,-1.71,-37.81,-37.99,0,*58
1510081464.21,37418,11.75,73846.5,-1.71,-37.81,-37.99,0,*57
1510081465.47,37419,11.75,73840.0,-1.71,-37.63,-37.93,0,*50
1510081466.73,37420,11.75,73844.5,-1.69,-37.93,-38.43,0,*5E
1510081468.02,37421,11.75,73842.5,-1.69,-38.11,-38.29,0,*56
1510081469.23,37422,11.75,73842.0,-1.71,-38.17,-38.55,0,*51
1510081470.47,37423,11.75,73842.8,-1.71,-37.99,-38.17,0,*5F
1510081471.71,37424,11.75,73840.3,-1.71,-38.23,-38.55,0,*50
1510081472.91,37425,11.75,73844.5,-1.71,-38.73,-38.97,0,*5A
1510081474.15,37426,11.75,73842.0,-1.71,-38.73,-38.91,0,*5F
1510081475.35,37427,11.75,73844.8,-1.71,-38.73,-38.97,0,*58
1510081476.61,37428,11.75,73846.5,-1.73,-38.79,-38.97,0,*5F
1510081477.87,37429,11.75,73840.0,-1.73,-38.43,-38.79,0,*57
1510081479.12,37430,11.75,73840.0,-1.73,-38.55,-38.79,0,*58
1510081480.38,37431,11.75,73842.8,-1.73,-38.43,-38.79,0,*5E
1510081481.64,37432,11.75,73840.3,-1.73,-38.61,-38.79,0,*5D
1510081482.87,37433,11.75,73842.3,-1.73,-38.61,-38.97,0,*5C
1510081484.08,37434,11.69,73836.5,-1.75,-38.61,-38.85,0,*5E
1510081485.33,37435,11.75,73840.3,-1.73,-38.73,-38.79,0,*59
1510081486.56,37436,11.75,73840.5,-1.75,-38.67,-38.97,0,*59
1510081487.78,37437,11.75,73842.8,-1.75,-38.85,-38.97,0,*54
1510081489.04,37438,11.75,73842.0,-1.75,-38.49,-38.79,0,*5B
1510081490.28,37439,11.75,73840.0,-1.75,-38.61,-38.67,0,*5F
1510081491.54,37440,11.69,73838.0,-1.73,-38.55,-38.79,0,*5F
1510081492.75,37441,11.75,73846.3,-1.75,-38.61,-38.85,0,*5C
1510081493.96,37442,11.75,73844.0,-1.75,-38.61,-38.85,0,*5F
1510081495.19,37443,11.75,73844.0,-1.75,-38.67,-38.97,0,*5B
1510081496.43,37444,11.75,73836.8,-1.77,-38.61,-38.85,0,*5B
1510081497.72,37445,11.75,73842.5,-1.77,-38.23,-38.49,0,*5C
1510081499.01,37446,11.75,73842.5,-1.77,-38.23,-38.49,0,*5F
1510081500.22,37447,11.75,73844.5,-1.75,-37.87,-38.05,0,*55
1510081501.46,37448,11.75,73844.3,-1.75,-37.87,-38.11,0,*5F
1510081502.69,37449,11.75,73842.8,-1.73,-38.17,-38.43,0,*59
1510081503.92,37450,11.75,73850.5,-1.73,-38.43,-38.61,0,*50
1510081505.16,37451,11.75,73844.0,-1.75,-38.29,-38.61,0,*5B
1510081506.42,37452,11.75,73842.3,-1.75,-38.11,-38.49,0,*59
1510081507.68,37453,11.75,73848.0,-1.75,-38.23,-38.49,0,*59
1510081508.94,37454,11.75,73846.8,-1.75,-38.11,-38.29,0,*59
1510081510.18,37455,11.75,73848.3,-1.75,-38.29,-38.61,0,*5F
1510081511.45,37456,11.69,73842.5,-1.75,-38.49,-38.67,0,*5C
1510081512.71,37457,11.75,73846.3,-1.75,-38.29,-38.49,0,*57
1510081513.94,37458,11.69,73844.0,-1.75,-37.93,-38.05,0,*5E
1510081515.18,37459,11.75,73844.3,-1.75,-38.05,-38.29,0,*51
1510081516.44,37460,11.75,73848.0,-1.75,-38.11,-38.49,0,*58
1510081517.73,37461,11.75,73846.3,-1.73,-37.93,-38.23,0,*56
1510081518.97,37462,11.69,73846.0,-1.75,-38.05,-38.23,0,*53
1510081520.22,37463,11.75,73848.5,-1.73,-37.75,-37.81,0,*5B
1510081521.48,37464,11.75,73848.3,-1.73,-37.99,-38.05,0,*5D
1510081522.71,37465,11.75,73846.3,-1.73,-38.17,-38.61,0,*57
1510081523.97,37466,11.75,73844.5,-1.73,-38.23,-38.55,0,*54
1510081525.2,37467,11.75,73846.8,-1.75,-38.61,-38.79,0,*5B
1510081526.45,37468,11.75,73846.0,-1.75,-38.49,-38.85,0,*5D
1510081527.71,37469,11.75,73846.0,-1.75,-38.29,-38.49,0,*5A
1510081528.97,37470,11.75,73844.0,-1.73,-37.93,-38.17,0,*51
1510081530.21,37471,11.75,73846.3,-1.75,-38.05,-38.29,0,*5B
1510081531.46,37472,11.75,73846.0,-1.73,-38.35,-38.67,0,*57
1510081532.72,37473,11.75,73842.5,-1.75,-38.49,-38.67,0,*5B
1510081534.01,37474,11.75,73844.5,-1.73,-37.93,-37.99,0,*5C
1510081535.26,37475,11.75,73846.3,-1.73,-37.93,-38.05,0,*57
1510081536.55,37476,11.75,73846.3,-1.73,-37.99,-38.23,0,*5A
1510081537.78,37477,11.75,73846.8,-1.73,-38.17,-38.43,0,*54
1510081539.05,37478,11.75,73846.8,-1.75,-38.49,-38.67,0,*50
1510081540.31,37479,11.75,73842.8,-1.75,-38.49,-38.79,0,*5E
1510081541.57,37480,11.75,73846.8,-1.73,-38.61,-38.79,0,*54
1510081542.78,37481,11.75,73844.8,-1.75,-38.43,-38.73,0,*59
1510081544.01,37482,11.75,73844.3,-1.73,-38.43,-38.61,0,*5F
1510081545.23,37483,11.75,73846.8,-1.73,-38.43,-38.73,0,*5D
1510081546.49,37484,11.75,73842.3,-1.75,-38.11,-38.49,0,*52
1510081547.75,37485,11.75,73844.0,-1.75,-38.11,-38.23,0,*5F
1510081548.99,37486,11.75,73846.0,-1.75,-38.23,-38.43,0,*5B
1510081550.24,37487,11.75,73846.8,-1.73,-37.99,-38.17,0,*53
1510081551.48,37488,11.69,73840.5,-1.73,-38.05,-38.35,0,*56
1510081552.71,37489,11.75,73844.0,-1.75,-38.11,-38.43,0,*55
1510081553.92,37490,11.75,73846.8,-1.75,-38.43,-38.61,0,*5A
1510081555.16,37491,11.75,73846.0,-1.73,-38.17,-38.43,0,*5C
1510081556.4,37492,11.75,73846.3,-1.75,-38.61,-38.79,0,*51
1510081557.65,37493,11.75,73844.5,-1.73,-38.61,-38.79,0,*56
1510081558.87,37494,11.75,73846.8,-1.75,-38.61,-38.85,0,*54
1510081560.08,37495,11.75,73844.3,-1.75,-38.61,-38.85,0,*55
1510081561.31,37496,11.69,73842.8,-1.73,-38.61,-38.73,0,*59
1510081562.54,37497,11.75,73844.0,-1.75,-38.67,-38.85,0,*51
1510081563.83,37498,11.69,73846.3,-1.77,-38.49,-38.79,0,*53
1510081565.1,37499,11.75,73848.0,-1.75,-38.49,-38.67,0,*5F
1510081566.36,37500,11.75,73850.3,-1.75,-38.49,-38.67,0,*5E
1510081567.63,37501,11.75,73844.8,-1.77,-38.79,-38.97,0,*51
1510081568.91,37502,11.75,73848.5,-1.77,-38.67,-38.79,0,*5D
1510081570.2,37503,11.75,73846.5,-1.77,-38.49,-38.79,0,*50
1510081571.46,37504,11.75,73844.5,-1.77,-38.43,-38.67,0,*52
1510081572.69,37505,11.75,73844.0,-1.81,-38.55,-38.91,0,*54
1510081573.92,37506,11.75,73850.3,-1.81,-38.55,-38.91,0,*57
1510081575.15,37507,11.75,73846.3,-1.81,-38.55,-38.79,0,*50
1510081576.38,37508,11.75,73844.0,-1.81,-38.23,-38.43,0,*57
1510081577.59,37509,11.69,73844.3,-1.81,-38.35,-38.55,0,*56
1510081578.85,37510,11.75,73846.3,-1.81,-37.93,-37.99,0,*52
1510081580.12,37511,11.75,73846.3,-1.77,-37.81,-37.87,0,*56
1510081581.39,37512,11.75,73846.8,-1.77,-38.05,-38.23,0,*57
1510081582.68,37513,11.75,73846.0,-1.77,-38.11,-38.29,0,*59
1510081583.94,37514,11.75,73846.5,-1.77,-37.69,-37.87,0,*55
1510081585.21,37515,11.75,73842.8,-1.77,-38.05,-38.23,0,*50
1510081586.49,37516,11.75,73842.8,-1.77,-37.99,-38.11,0,*58
1510081587.78,37517,11.75,73840.5,-1.77,-37.51,-37.69,0,*5D
1510081589.02,37518,11.75,73840.5,-1.75,-37.45,-37.63,0,*5F
1510081590.28,37519,11.75,73840.3,-1.75,-37.51,-37.81,0,*57
1510081591.54,37520,11.69,73838.0,-1.73,-37.75,-37.81,0,*5D
1510081592.77,37521,11.75,73840.0,-1.73,-37.45,-37.57,0,*54
1510081594.0,37522,11.75,73840.5,-1.73,-37.45,-37.57,0,*57
1510081595.23,37523,11.69,73838.0,-1.73,-37.45,-37.57,0,*56
1510081596.45,37524,11.69,73840.8,-1.73,-37.27,-37.45,0,*56
1510081597.74,37525,11.75,73840.3,-1.73,-37.09,-37.21,0,*59
1510081598.97,37526,11.69,73840.3,-1.73,-37.45,-37.57,0,*53
1510081600.21,37527,11.69,73840.5,-1.71,-37.45,-37.63,0,*57
1510081601.44,37528,11.75,73844.3,-1.71,-37.93,-38.17,0,*5F
1510081602.66,37529,11.75,73844.3,-1.71,-38.17,-38.43,0,*5C
1510081603.89,37530,11.75,73844.5,-1.71,-38.23,-38.55,0,*54
1510081605.11,37531,11.75,73844.5,-1.71,-38.43,-38.55,0,*53
1510081606.32,37532,11.75,73846.5,-1.71,-38.43,-38.55,0,*50
1510081607.61,37533,11.75,73846.3,-1.69,-38.29,-38.49,0,*59
1510081608.84,37534,11.75,73846.3,-1.69,-38.35,-38.55,0,*5E
1510081610.08,37535,11.69,73840.8,-1.71,-38.61,-38.79,0,*59
1510081611.31,37536,11.75,73844.8,-1.73,-38.35,-38.55,0,*57
1510081612.54,37537,11.75,73848.0,-1.73,-38.55,-38.73,0,*54
1510081613.76,37538,11.75,73846.5,-1.73,-38.73,-38.97,0,*55
1510081615.0,37539,11.75,73842.8,-1.73,-38.43,-38.61,0,*5E
1510081616.25,37540,11.75,73844.5,-1.73,-38.23,-38.35,0,*57
1510081617.49,37541,11.75,73844.0,-1.73,-38.43,-38.55,0,*56
1510081618.72,37542,11.75,73844.0,-1.73,-38.35,-38.61,0,*53
1510081619.97,37543,11.75,73844.8,-1.73,-38.35,-38.67,0,*54
1510081621.19,37544,11.75,73844.8,-1.73,-38.43,-38.73,0,*57
1510081622.45,37545,11.75,73844.0,-1.75,-38.67,-38.79,0,*5C
1510081623.71,37546,11.75,73842.8,-1.75,-38.67,-38.79,0,*5F
1510081624.92,37547,11.75,73840.5,-1.75,-38.43,-38.61,0,*51
1510081626.18,37548,11.75,73840.8,-1.75,-38.11,-38.29,0,*55
1510081627.45,37549,11.75,73842.8,-1.75,-38.23,-38.29,0,*55
1510081628.71,37550,11.75,73840.8,-1.75,-38.49,-38.67,0,*5B
1510081629.95,37551,11.69,73838.5,-1.75,-38.49,-38.61,0,*5C
1510081631.19,37552,11.75,73840.3,-1.75,-38.29,-38.61,0,*59
1510081632.42,37553,11.75,73840.5,-1.73,-38.35,-38.55,0,*54
1510081633.66,37554,11.75,73846.0,-1.75,-38.67,-38.85,0,*5F
1510081634.91,37555,11.75,73842.5,-1.75,-38.67,-38.79,0,*5D
1510081636.11,37556,11.75,73842.8,-1.81,-38.73,-38.97,0,*50
1510081637.38,37557,11.75,73840.8,-1.77,-38.43,-38.49,0,*58
1510081638.67,37558,11.69,73836.5,-1.77,-38.49,-38.79,0,*5E
1510081639.96,37559,11.75,73840.0,-1.77,-38.29,-38.49,0,*5A
1510081641.22,37560,11.75,73840.3,-1.77,-38.11,-38.43,0,*51
1510081642.48,37561,11.75,73840.3,-1.77,-37.99,-38.05,0,*5D
1510081643.74,37562,11.75,73836.3,-1.77,-38.05,-38.11,0,*51
1510081644.98,37563,11.75,73836.8,-1.75,-38.05,-38.23,0,*53
1510081646.24,37564,11.75,73838.5,-1.75,-38.11,-38.29,0,*5B
1510081647.47,37565,11.75,73836.8,-1.75,-37.99,-38.05,0,*5B
1510081648.71,37566,11.75,73838.3,-1.75,-38.05,-38.23,0,*56
1510081649.97,37567,11.75,73836.0,-1.75,-38.11,-38.29,0,*58
1510081651.25,37568,11.75,73836.5,-1.75,-37.81,-37.99,0,*55
1510081652.49,37569,11.75,73836.0,-1.75,-37.69,-37.87,0,*5D
1510081653.72,37570,11.75,73842.0,-1.75,-38.05,-38.23,0,*51
1510081654.98,37571,11.75,73836.8,-1.75,-37.63,-37.69,0,*5E
1510081656.25,37572,11.75,73836.0,-1.75,-37.69,-37.81,0,*51
1510081657.49,37573,11.75,73840.3,-1.75,-37.87,-37.99,0,*59
1510081658.77,37574,11.75,73836.0,-1.73,-37.93,-37.99,0,*5D
1510081660.02,37575,11.75,73838.8,-1.75,-37.69,-37.87,0,*50
1510081661.28,37576,11.75,73836.5,-1.75,-37.69,-37.81,0,*55
1510081662.54,37577,11.75,73838.5,-1.75,-37.69,-37.81,0,*54
1510081663.8,37578,11.69,73832.8,-1.73,-38.17,-38.23,0,*5C
1510081665.03,37579,11.75,73832.5,-1.73,-38.05,-38.17,0,*59
1510081666.29,37580,11.75,73836.3,-1.75,-37.63,-37.69,0,*50
1510081667.55,37581,11.75,73834.3,-1.73,-37.63,-37.75,0,*5A
1510081668.81,37582,11.75,73836.8,-1.73,-37.81,-38.05,0,*5D
1510081670.01,37583,11.69,73834.0,-1.71,-38.05,-38.05,0,*5D
1510081671.25,37584,11.75,73838.3,-1.71,-38.17,-38.23,0,*5D
1510081672.52,37585,11.75,73838.5,-1.71,-37.93,-37.99,0,*51
1510081673.73,37586,11.75,73842.0,-1.71,-38.17,-38.17,0,*58
1510081674.94,37587,11.75,73842.3,-1.71,-38.17,-38.35,0,*59
1510081676.17,37588,11.75,73840.5,-1.71,-38.23,-38.43,0,*50
1510081677.38,37589,11.75,73840.3,-1.71,-38.35,-38.61,0,*56
1510081678.62,37590,11.75,73838.0,-1.73,-38.43,-38.55,0,*5A
1510081679.87,37591,11.75,73836.5,-1.73,-37.99,-38.05,0,*56
1510081681.15,37592,11.75,73840.0,-1.73,-37.93,-37.93,0,*5F
1510081682.41,37593,11.75,73838.3,-1.73,-38.23,-38.43,0,*58
1510081683.69,37594,11.75,73836.3,-1.73,-38.23,-38.23,0,*59
1510081684.95,37595,11.75,73836.3,-1.73,-37.75,-37.81,0,*53
1510081686.18,37596,11.75,73836.3,-1.71,-37.99,-38.17,0,*50
1510081687.4,37597,11.75,73838.5,-1.71,-38.35,-38.55,0,*5E
1510081688.61,37598,11.75,73840.3,-1.71,-38.35,-38.43,0,*56
1510081689.82,37599,11.75,73838.0,-1.71,-38.43,-38.55,0,*51
1510081691.06,37600,11.69,73838.8,-1.73,-38.05,-38.35,0,*54
1510081692.34,37601,11.75,73842.3,-1.73,-37.99,-37.99,0,*56
1510081693.57,37602,11.75,73844.0,-1.73,-38.05,-38.17,0,*56
1510081694.78,37603,11.75,73840.8,-1.71,-38.17,-38.35,0,*56
1510081696.02,37604,11.75,73836.8,-1.73,-38.35,-38.43,0,*52
1510081697.23,37605,11.75,73840.5,-1.75,-38.43,-38.61,0,*54
1510081698.45,37606,11.75,73840.0,-1.73,-38.05,-38.05,0,*51